DW2921 Weather Reports


Display with metric or nautical units.
time (UTC)temp
F
wind
direction
speed
MPH
gust
MPH
rain 1hr
in
rain 24hr
in
rain mn
in
humidity
%
barometer
mb
20260905223100 92 85 0.0 0.0 0.00 0.00 0.00 50 1013.0
20260905222100 92 120 0.0 0.0 0.00 0.00 0.00 50 1013.0
20260905221100 92 204 0.0 0.0 0.00 0.00 0.00 50 1013.0
20260905220100 92 199 0.0 0.0 0.00 0.00 0.00 50 1013.0
20260905215100 94 131 0.0 0.0 0.00 0.00 0.00 50 1013.0
20260905214100 94 112 0.0 0.0 0.00 0.00 0.00 50 1013.0
20260905213100 93 129 0.0 0.0 0.00 0.00 0.00 50 1013.0
20260905212100 93 94 0.0 0.0 0.00 0.00 0.00 50 1013.0
20260905211100 94 227 0.0 0.0 0.00 0.00 0.00 50 1013.0
20260905210101 94 244 0.0 0.0 0.00 0.00 0.00 50 1013.0
20260905204100 95 226 0.0 0.0 0.00 0.00 0.00 50 1013.0
20260905203100 96 242 0.0 0.0 0.00 0.00 0.00 50 1013.0
20260905202100 96 217 0.0 0.0 0.00 0.00 0.00 50 1013.0
20260905201059 95 26 0.0 0.0 0.00 0.00 0.00 50 1013.0
20260905200100 94 26 0.0 0.0 0.00 0.00 0.00 50 1013.0
20260905193100 95 157 0.0 0.0 0.00 0.00 0.00 50 1013.0
20260905192100 96 41 0.0 0.0 0.00 0.00 0.00 50 1013.0
20260905191100 96 131 0.0 0.0 0.00 0.00 0.00 50 1013.0
20260905190101 95 104 0.0 0.0 0.00 0.00 0.00 50 1013.0
20260905185100 95 72 0.0 0.0 0.00 0.00 0.00 50 1013.0
20260905184059 94 95 0.0 0.0 0.00 0.00 0.00 50 1013.0
20260905183100 93 62 0.0 0.0 0.00 0.00 0.00 50 1013.0
20260905182100 92 63 0.0 0.0 0.00 0.00 0.00 50 1013.0
20260905181100 91 50 0.0 0.0 0.00 0.00 0.00 50 1013.0
20260905175100 88 308 0.0 0.0 0.00 0.00 0.00 50 1013.0
20260905173100 86 3 0.0 0.0 0.00 0.00 0.00 50 1013.0
20260905171100 85 10 0.0 0.0 0.00 0.00 0.00 50 1013.0
20260905170101 85 18 0.0 0.0 0.00 0.00 0.00 50 1013.0
20260905164100 86 355 0.0 0.0 0.00 0.00 0.00 50 1013.0
20260905163100 87 341 0.0 0.0 0.00 0.00 0.00 50 1013.0
20260905161100 88 255 0.0 0.0 0.00 0.00 0.00 50 1013.0
20260905155100 87 209 0.0 0.0 0.00 0.00 0.00 50 1013.0
20260905154100 86 222 0.0 0.0 0.00 0.00 0.00 50 1013.0
20260905153100 85 215 0.0 0.0 0.00 0.00 0.00 50 1013.0
20260905152100 84 204 0.0 0.0 0.00 0.00 0.00 50 1013.0
20260905151100 83 210 0.0 0.0 0.00 0.00 0.00 50 1013.0
20260905150100 82 226 0.0 0.0 0.00 0.00 0.00 50 1013.0
20260905145100 82 204 0.0 0.0 0.00 0.00 0.00 50 1013.0
20260905144100 82 241 0.0 0.0 0.00 0.00 0.00 50 1013.0
20260905143100 81 241 0.0 0.0 0.00 0.00 0.00 50 1013.0
20260905142100 80 241 0.0 0.0 0.00 0.00 0.00 50 1013.0
20260905141100 80 241 0.0 0.0 0.00 0.00 0.00 50 1013.0
20260905135100 79 355 0.0 0.0 0.00 0.00 0.00 50 1013.0
20260905134100 79 355 0.0 0.0 0.00 0.00 0.00 50 1013.0
20260905133100 78 355 0.0 0.0 0.00 0.00 0.00 50 1013.0
20260905132100 78 355 0.0 0.0 0.00 0.00 0.00 50 1013.0
20260905131100 78 355 0.0 0.0 0.00 0.00 0.00 50 1013.0
20260905130101 78 355 0.0 0.0 0.00 0.00 0.00 50 1013.0
20260905125101 77 355 0.0 0.0 0.00 0.00 0.00 50 1013.0
20260905124100 77 355 0.0 0.0 0.00 0.00 0.00 50 1013.0
20260905123100 77 355 0.0 0.0 0.00 0.00 0.00 50 1013.0
20260905122100 76 355 0.0 0.0 0.00 0.00 0.00 50 1013.0
20260905121100 76 355 0.0 0.0 0.00 0.00 0.00 50 1013.0
20260905120101 76 355 0.0 0.0 0.00 0.00 0.00 50 1013.0
20260905115100 75 355 0.0 0.0 0.00 0.00 0.00 50 1013.0
20260905114100 75 355 0.0 0.0 0.00 0.00 0.00 50 1013.0
20260905113100 75 355 0.0 0.0 0.00 0.00 0.00 50 1013.0
20260905111100 76 355 0.0 0.0 0.00 0.00 0.00 50 1013.0
20260905110100 76 355 0.0 0.0 0.00 0.00 0.00 50 1013.0
20260905105100 76 355 0.0 0.0 0.00 0.00 0.00 50 1013.0
20260905103100 76 355 0.0 0.0 0.00 0.00 0.00 50 1013.0
20260905102100 76 355 0.0 0.0 0.00 0.00 0.00 50 1013.0
20260905101100 76 355 0.0 0.0 0.00 0.00 0.00 50 1013.0
20260905095100 76 355 0.0 0.0 0.00 0.00 0.00 50 1013.0
20260905094100 77 355 0.0 0.0 0.00 0.00 0.00 50 1013.0
20260905093100 77 355 0.0 0.0 0.00 0.00 0.00 50 1013.0
20260905092101 77 355 0.0 0.0 0.00 0.00 0.00 50 1013.0
20260905091101 77 355 0.0 0.0 0.00 0.00 0.00 50 1013.0
20260905085100 77 355 0.0 0.0 0.00 0.00 0.00 50 1013.0
20260905083100 78 355 0.0 0.0 0.00 0.00 0.00 50 1013.0
20260905082100 78 355 0.0 0.0 0.00 0.00 0.00 50 1013.0
20260905081100 78 355 0.0 0.0 0.00 0.00 0.00 50 1013.0
20260905075100 79 355 0.0 0.0 0.00 0.00 0.00 50 1013.0
20260905074100 79 355 0.0 0.0 0.00 0.00 0.00 50 1013.0
20260905072100 79 355 0.0 0.0 0.00 0.00 0.00 50 1013.0
20260905065100 80 355 0.0 0.0 0.00 0.00 0.00 50 1013.0
20260905064100 80 355 0.0 0.0 0.00 0.00 0.00 50 1013.0
20260905063100 80 355 0.0 0.0 0.00 0.00 0.00 50 1013.0
20260905062101 80 355 0.0 0.0 0.00 0.00 0.00 50 1013.0
20260905055100 81 355 0.0 0.0 0.00 0.00 0.00 50 1013.0
20260905054101 81 355 0.0 0.0 0.00 0.00 0.00 50 1013.0
20260905052100 82 355 0.0 0.0 0.00 0.00 0.00 50 1013.0
20260905045100 82 355 0.0 0.0 0.00 0.00 0.00 50 1013.0
20260905044100 83 355 0.0 0.0 0.00 0.00 0.00 50 1013.0
20260905042100 83 355 0.0 0.0 0.00 0.00 0.00 50 1013.0
20260905041101 83 355 0.0 0.0 0.00 0.00 0.00 50 1013.0
20260905040101 84 355 0.0 0.0 0.00 0.00 0.00 50 1013.0
20260905035100 84 355 0.0 0.0 0.00 0.00 0.00 50 1013.0
20260905033100 85 355 0.0 0.0 0.00 0.00 0.00 50 1013.0
20260905032101 85 355 0.0 0.0 0.00 0.00 0.00 50 1013.0
20260905031100 85 355 0.0 0.0 0.00 0.00 0.00 50 1013.0
20260905030101 85 355 0.0 0.0 0.00 0.00 0.00 50 1013.0
20260905025100 86 355 0.0 0.0 0.00 0.00 0.00 50 1013.0
20260905024100 86 355 0.0 0.0 0.00 0.00 0.00 50 1013.0
20260905023100 86 355 0.0 0.0 0.00 0.00 0.00 50 1013.0
20260905022101 87 358 0.0 0.0 0.00 0.00 0.00 50 1013.0
20260905021100 87 358 0.0 0.0 0.00 0.00 0.00 50 1013.0
20260905015101 87 358 0.0 0.0 0.00 0.00 0.00 50 1013.0
20260905014101 88 358 0.0 0.0 0.00 0.00 0.00 50 1013.0
20260905013101 88 355 0.0 0.0 0.00 0.00 0.00 50 1013.0
20260905012100 88 355 0.0 0.0 0.00 0.00 0.00 50 1013.0
20260905011100 89 355 0.0 0.0 0.00 0.00 0.00 50 1013.0
20260905005101 89 355 0.0 0.0 0.00 0.00 0.00 50 1013.0
20260905004101 90 355 0.0 0.0 0.00 0.00 0.00 50 1013.0
20260905003101 90 355 0.0 0.0 0.00 0.00 0.00 50 1013.0
20260905001100 91 355 0.0 0.0 0.00 0.00 0.00 50 1013.0
20260904235101 92 355 0.0 0.0 0.00 0.00 0.00 50 1013.0
20260904234101 93 355 0.0 0.0 0.00 0.00 0.00 50 1013.0
20260904233100 93 355 0.0 0.0 0.00 0.00 0.00 50 1013.0
20260904232100 94 355 0.0 0.0 0.00 0.00 0.00 50 1013.0
20260904231100 94 355 0.0 0.0 0.00 0.00 0.00 50 1013.0
20260904225101 95 289 0.0 0.0 0.00 0.00 0.00 50 1013.0